EW1134 Weather Reports


time (UTC)temp
C
wind
direction
speed
KPH
gust
KPH
rain 1hr
cm
rain 24hr
cm
rain mn
cm
humidity
%
barometer
mb
20260504082002 17 41 4.8 17.7 0.00 0.00 0.00 40 1020.1
20260504081503 16 31 8.0 20.9 0.00 0.00 0.00 41 1020.0
20260504081003 16 4 9.7 22.5 0.00 0.00 0.00 42 1020.0
20260504050503 8 276 0.0 6.4 0.00 0.00 0.00 73 1019.5
20260504050003 8 263 3.2 9.7 0.00 0.00 0.00 73 1019.3
20260504045503 7 266 3.2 9.7 0.00 0.00 0.00 74 1019.3
20260504045003 7 254 1.6 6.4 0.00 0.00 0.00 75 1019.2
20260504044504 7 260 3.2 9.7 0.00 0.00 0.00 75 1019.2
20260504044003 7 274 3.2 9.7 0.00 0.00 0.00 76 1019.2
20260504043004 9 289 1.6 8.0 0.00 0.00 0.00 77 1019.2
20260504042503 9 267 1.6 8.0 0.00 0.00 0.00 77 1019.1
20260504041504 9 282 1.6 6.4 0.00 0.00 0.00 78 1019.1
20260504041003 9 278 1.6 6.4 0.00 0.00 0.00 78 1019.2
20260504040503 9 272 1.6 6.4 0.00 0.00 0.00 78 1019.0
20260504040004 9 272 3.2 9.7 0.00 0.00 0.00 78 1019.2
20260504035503 9 282 4.8 11.3 0.00 0.00 0.00 78 1018.9
20260504035002 9 291 4.8 11.3 0.00 0.00 0.00 78 1019.1
20260504034503 9 283 3.2 11.3 0.00 0.00 0.00 78 1019.1
20260504034003 9 270 4.8 12.9 0.00 0.00 0.00 78 1018.9
20260504032502 9 248 1.6 9.7 0.00 0.00 0.00 77 1019.0
20260504031504 9 244 1.6 8.0 0.00 0.00 0.00 77 1018.9
20260504031003 9 267 1.6 11.3 0.00 0.00 0.00 77 1018.7
20260504030503 9 270 1.6 11.3 0.00 0.00 0.00 77 1018.8
20260504030003 9 262 1.6 6.4 0.00 0.00 0.00 77 1018.7
20260504025503 9 266 1.6 6.4 0.00 0.00 0.00 76 1018.8
20260504025003 9 297 1.6 4.8 0.00 0.00 0.00 76 1018.7
20260504024503 9 298 1.6 6.4 0.00 0.00 0.00 76 1018.7
20260504023503 9 250 1.6 6.4 0.00 0.00 0.00 76 1018.8
20260504023004 9 239 1.6 6.4 0.00 0.00 0.00 75 1019.1
20260504022503 9 247 1.6 6.4 0.00 0.00 0.00 75 1018.8
20260504022002 9 241 1.6 6.4 0.00 0.00 0.00 75 1018.8
20260504021504 9 227 3.2 6.4 0.00 0.00 0.00 75 1018.8
20260504021003 9 244 4.8 9.7 0.00 0.00 0.00 75 1018.8
20260504020003 9 248 3.2 11.3 0.00 0.00 0.00 74 1018.9
20260504015502 9 231 3.2 8.0 0.00 0.00 0.00 74 1018.8
20260504013502 9 245 3.2 8.0 0.00 0.00 0.00 75 1018.9
20260504012502 9 250 3.2 11.3 0.00 0.00 0.00 75 1019.0
20260504011503 9 237 1.6 6.4 0.00 0.00 0.00 74 1018.9
20260504011003 9 244 1.6 6.4 0.00 0.00 0.00 74 1019.1
20260504005502 9 243 1.6 9.7 0.00 0.00 0.00 74 1018.9
20260504005003 9 249 1.6 6.4 0.00 0.00 0.00 74 1018.7
20260504004503 9 249 1.6 6.4 0.00 0.00 0.00 74 1018.7
20260504003502 9 237 1.6 9.7 0.00 0.00 0.00 73 1018.8
20260504002003 9 238 3.2 6.4 0.00 0.00 0.00 73 1018.6
20260504001003 9 235 3.2 8.0 0.00 0.00 0.00 73 1018.9
20260504000503 9 253 3.2 8.0 0.00 0.00 0.00 73 1018.8
20260504000004 9 259 3.2 8.0 0.00 0.00 0.00 73 1018.8
20260503235503 9 260 3.2 9.7 0.00 0.00 0.00 73 1018.9
20260503235003 9 265 3.2 9.7 0.00 0.00 0.00 73 1018.7
20260503234002 9 251 1.6 9.7 0.00 0.00 0.00 73 1018.8
20260503233503 9 263 3.2 8.0 0.00 0.00 0.00 73 1018.7
20260503233003 9 270 3.2 6.4 0.00 0.00 0.00 73 1018.7
20260503232502 9 263 4.8 9.7 0.00 0.00 0.00 73 1018.8
20260503232003 9 256 4.8 9.7 0.00 0.00 0.00 73 1019.0
20260503231503 9 242 3.2 9.7 0.00 0.00 0.00 73 1018.9
20260503231003 9 235 3.2 11.3 0.00 0.00 0.00 73 1018.8
20260503230502 9 239 3.2 11.3 0.00 0.00 0.00 74 1018.8
20260503230003 9 248 1.6 8.0 0.00 0.00 0.00 74 1018.8
20260503225503 9 268 3.2 6.4 0.00 0.00 0.00 74 1018.9
20260503225003 9 271 3.2 8.0 0.00 0.00 0.00 74 1019.0
20260503224503 9 279 3.2 8.0 0.00 0.00 0.00 74 1019.0
20260503224002 9 258 3.2 8.0 0.00 0.00 0.00 73 1019.0
20260503223503 9 236 1.6 8.0 0.00 0.00 0.00 73 1018.9
20260503223004 9 238 1.6 8.0 0.00 0.00 0.00 73 1018.9
20260503222003 9 212 0.0 3.2 0.00 0.00 0.00 72 1019.1
20260503221504 9 169 0.0 3.2 0.00 0.00 0.00 72 1018.9
20260503221003 9 171 0.0 1.6 0.00 0.00 0.00 71 1019.0
20260503220502 9 141 0.0 3.2 0.00 0.00 0.00 71 1019.0
20260503220003 9 198 0.0 4.8 0.00 0.00 0.00 71 1019.0
20260503215503 9 248 0.0 4.8 0.00 0.00 0.00 71 1019.0
20260503215002 9 269 0.0 3.2 0.00 0.00 0.00 70 1019.1
20260503214503 9 276 0.0 6.4 0.00 0.00 0.00 70 1018.8
20260503213502 9 221 1.6 8.0 0.00 0.00 0.00 71 1019.0
20260503213004 9 234 0.0 8.0 0.00 0.00 0.00 71 1019.0
20260503212503 9 231 1.6 6.4 0.00 0.00 0.00 71 1019.1
20260503211503 9 230 1.6 6.4 0.00 0.00 0.00 71 1019.2
20260503211003 9 241 1.6 8.0 0.00 0.00 0.00 71 1019.2
20260503210503 9 256 3.2 8.0 0.00 0.00 0.00 71 1019.1
20260503210005 9 246 3.2 8.0 0.00 0.00 0.00 71 1019.0
20260503205502 9 250 3.2 11.3 0.00 0.00 1.47 71 1018.9
20260503205003 9 263 3.2 11.3 0.00 0.00 1.47 71 1019.2
20260503204504 9 257 3.2 8.0 0.00 0.00 1.47 71 1019.0
20260503204003 9 263 3.2 9.7 0.00 0.00 1.47 71 1019.2
20260503203503 9 266 3.2 9.7 0.00 0.00 1.47 71 1019.1
20260503202502 9 256 3.2 8.0 0.00 0.00 1.47 71 1019.2
20260503202003 9 236 3.2 8.0 0.00 0.00 1.47 70 1019.0
20260503201503 9 222 1.6 6.4 0.00 0.00 1.47 70 1019.1
20260503200503 9 234 3.2 8.0 0.00 0.00 1.47 70 1019.1
20260503200003 9 229 4.8 8.0 0.00 0.00 1.47 70 1019.2
20260503195502 9 225 4.8 9.7 0.00 0.00 1.47 69 1019.1
20260503195003 9 227 4.8 9.7 0.00 0.00 1.47 68 1019.0
20260503194503 9 232 3.2 6.4 0.00 0.00 1.47 68 1019.1
20260503194002 9 234 4.8 11.3 0.00 0.00 1.47 66 1019.1
20260503193003 8 225 6.4 11.3 0.00 0.00 1.47 64 1019.0
20260503191504 10 225 4.8 9.7 0.00 0.00 1.47 61 1019.1
20260503191003 10 242 1.6 6.4 0.00 0.00 1.47 60 1018.9
20260503190502 10 266 1.6 6.4 0.00 0.00 1.47 59 1019.1
20260503190004 10 266 1.6 8.0 0.00 0.00 1.47 59 1019.2
20260503185503 10 263 3.2 8.0 0.00 0.00 1.47 58 1019.1
20260503185003 10 257 3.2 8.0 0.00 0.00 1.47 58 1019.3
20260503184503 10 265 3.2 8.0 0.00 0.00 1.47 57 1019.0
20260503183502 10 266 1.6 8.0 0.00 0.00 1.47 56 1018.8
20260503183003 10 260 1.6 6.4 0.00 0.00 1.47 55 1018.8
20260503182503 10 235 0.0 4.8 0.00 0.00 1.47 55 1018.7
20260503182002 11 240 1.6 8.0 0.00 0.00 1.47 54 1018.6
20260503181504 11 255 1.6 8.0 0.00 0.00 1.47 54 1018.6
20260503181003 11 275 1.6 6.4 0.00 0.00 1.47 54 1018.6
20260503180503 11 281 1.6 6.4 0.00 0.00 1.47 53 1018.7
20260503180003 11 289 1.6 6.4 0.00 0.00 1.47 53 1018.5
20260503175503 11 297 1.6 8.0 0.00 0.00 1.47 52 1018.6
20260503175003 11 299 1.6 8.0 0.00 0.00 1.47 52 1018.6
20260503173003 12 298 3.2 6.4 0.00 0.00 0.00 50 1018.1
20260503171503 12 334 9.7 20.9 0.00 0.00 1.47 47 1018.0
20260503151002 13 297 12.9 30.6 0.00 1.47 1.47 52 1013.8
20260503131003 12 309 14.5 25.7 0.00 1.47 1.47 57 1014.3
20260503130502 12 324 14.5 30.6 0.00 1.47 1.47 59 1014.3